GFSNE_sfc_thetae_003.txt.gz
Theta_e
291 291 292 292 290 291 292 293 289 284 285 286 288 292 295 297 299 303 303 302 299 299 300 299 302 301 301 301 302 303 305 307 308 309 308 307 309 310
291 290 290 291 294 293 291 290 290 288 284 287 289 291 293 294 298 300 300 303 299 298 298 297 298 299 299 299 300 300 301 302 303 305 306 305 304 305
289 289 289 291 290 291 291 290 289 288 285 287 287 289 289 289 291 295 298 297 299 298 297 296 296 296 297 297 297 297 298 299 300 300 301 304 304 303
285 285 285 287 285 287 289 289 288 288 287 283 284 285 286 288 289 291 294 295 297 298 297 296 296 295 295 295 295 295 296 296 297 298 298 299 301 303
283 283 283 283 282 284 284 284 284 285 283 282 280 283 284 286 286 288 290 291 294 298 297 296 296 296 296 295 295 295 295 295 295 296 296 296 297 298
282 282 282 282 282 283 284 283 284 280 280 279 280 281 282 284 285 284 285 287 288 291 293 293 294 295 296 295 295 295 295 295 295 295 294 293 293 295
280 281 281 283 286 287 285 283 281 279 279 279 277 278 278 279 280 282 280 282 284 286 285 286 287 289 290 293 295 295 295 295 295 295 295 294 293 293
278 279 280 283 283 285 285 285 284 280 277 276 276 276 276 277 279 279 279 278 278 284 282 281 284 283 287 289 293 292 292 292 293 294 294 295 294 293
277 278 279 281 281 282 283 283 282 283 284 280 277 277 277 278 278 277 277 277 277 281 281 279 281 281 283 288 292 291 291 291 291 291 291 292 292 292
279 279 279 279 281 281 280 279 279 280 280 280 279 280 280 280 281 281 280 281 279 280 281 277 279 278 281 283 289 292 291 291 291 291 291 291 290 291
280 280 279 279 281 282 280 279 279 279 283 284 284 284 284 285 285 283 279 277 276 278 279 279 277 275 276 278 281 289 290 291 291 291 291 291 291 290
278 278 280 280 282 281 279 276 275 276 278 278 278 279 281 281 283 283 281 279 278 273 279 279 278 277 274 276 278 280 279 286 289 290 291 291 291 288
276 276 278 280 281 281 280 278 277 278 278 277 277 277 278 279 280 281 281 281 279 279 281 281 278 277 276 276 277 278 277 280 282 285 290 291 291 290
275 277 277 280 280 279 279 280 280 279 275 275 275 276 277 278 280 282 283 283 284 282 284 283 281 279 279 277 276 278 276 278 277 282 281 287 289 290
276 277 279 278 278 278 279 279 278 278 277 275 276 277 278 280 281 280 281 283 283 284 285 285 284 283 282 279 276 277 277 279 276 277 279 281 284 278
276 276 277 277 276 277 277 277 277 277 276 276 276 277 279 279 280 281 280 280 281 280 282 284 284 284 282 282 280 279 279 279 276 277 284 283 283 282
275 273 274 274 274 275 275 275 275 276 275 275 275 276 278 279 279 280 280 280 279 276 278 280 283 284 284 282 279 280 281 278 277 277 281 278 283 282
274 272 271 271 271 272 272 273 274 274 275 275 275 276 276 277 278 279 279 277 277 278 275 277 278 281 281 281 285 281 278 279 276 279 277 281 282 279
271 271 269 269 270 271 271 272 271 274 274 274 274 275 275 276 277 276 274 274 275 278 281 280 281 281 278 275 278 283 281 278 277 275 274 276 281 280
271 270 269 268 269 271 271 271 271 273 272 273 273 273 275 275 273 275 274 273 276 278 277 276 276 275 273 273 274 270 282 275 276 274 274 275 281 282
270 271 270 269 270 270 269 269 268 270 269 270 271 272 273 275 274 272 273 273 272 276 275 275 275 276 276 275 275 272 272 281 276 272 274 274 275 279
263 269 270 270 268 269 267 266 268 268 268 268 269 270 271 274 274 273 273 273 271 270 272 274 278 278 277 275 272 271 270 269 276 280 280 278 274 274
261 264 266 266 266 266 269 267 267 265 266 267 267 268 269 270 272 274 270 271 274 270 270 274 275 276 275 274 272 274 268 267 273 272 272 279 280 280

GFSNE_sfc_thetae_006.txt.gz
Theta_e
287 288 288 289 289 290 292 289 285 282 284 285 286 290 291 292 294 296 298 301 300 299 299 301 302 302 300 300 301 302 304 306 307 308 308 308 308 310
288 287 287 288 289 290 290 290 288 286 282 286 287 288 290 292 293 293 297 299 300 298 298 299 299 301 300 299 300 300 300 302 303 304 306 305 304 304
285 284 284 284 283 284 285 286 288 288 284 285 287 286 285 286 288 289 293 295 297 297 297 298 297 297 298 297 297 297 297 299 299 300 300 303 304 304
282 282 282 283 281 281 282 282 283 285 285 283 283 283 283 285 286 286 289 292 296 296 297 297 297 296 295 295 295 296 295 296 296 297 297 298 299 300
281 280 280 280 279 280 280 281 282 284 283 282 281 282 282 284 284 286 286 286 290 295 293 296 296 296 295 295 295 295 295 295 294 295 295 296 297 298
281 280 280 279 278 279 281 281 282 280 280 279 279 279 279 282 283 282 281 282 283 289 290 290 291 294 295 295 295 295 295 295 295 295 294 293 293 294
280 279 279 280 283 283 282 282 281 279 278 277 277 277 277 277 278 280 279 280 281 284 285 285 284 285 288 290 293 295 295 295 295 295 295 294 292 293
277 278 278 280 280 282 283 283 283 280 280 278 276 275 275 276 277 277 276 276 276 281 281 280 283 283 284 287 292 292 292 292 293 293 294 294 293 292
277 277 278 280 280 280 281 282 282 283 283 280 278 277 276 277 277 276 276 276 276 280 280 278 282 280 282 286 290 291 291 291 291 291 291 291 292 291
279 278 277 278 279 279 279 280 280 280 280 280 278 278 279 279 279 279 278 279 280 280 281 275 278 277 280 282 288 291 291 290 291 291 291 290 290 290
278 278 278 278 280 282 280 277 277 278 281 282 283 283 284 284 283 281 279 279 277 277 279 278 276 274 274 275 279 287 289 290 291 291 291 290 290 290
277 278 279 278 280 281 279 278 275 276 277 277 277 278 279 280 281 281 279 278 277 274 278 277 276 276 273 274 276 276 276 285 289 290 291 291 291 286
275 276 277 279 280 280 280 278 278 279 278 278 276 276 277 277 278 279 279 278 276 276 280 280 277 276 275 275 275 276 276 276 277 283 289 290 291 289
274 276 277 279 279 279 279 279 279 278 276 275 275 275 275 276 279 280 281 281 281 280 282 282 279 278 275 272 274 277 275 275 274 279 278 284 287 289
276 277 278 277 278 278 278 278 278 276 275 273 275 276 278 279 281 280 281 281 282 283 284 283 283 281 279 278 274 275 275 276 273 275 274 276 278 277
275 275 275 276 275 276 276 276 276 276 275 274 275 277 278 279 279 280 279 280 280 280 282 282 283 284 282 281 281 279 278 277 275 276 282 282 282 284
270 271 272 272 272 272 272 273 274 275 274 275 275 276 277 278 279 280 280 280 277 276 277 279 281 282 283 282 280 280 278 276 275 277 277 277 277 280
269 267 266 267 270 270 269 270 272 273 274 274 274 275 275 276 277 278 278 276 276 276 275 280 280 281 281 280 284 280 280 280 276 277 279 278 280 277
265 266 265 266 266 270 270 269 269 271 273 272 272 273 273 275 275 275 273 271 273 276 276 275 279 281 278 276 277 283 280 281 279 272 275 280 281 277
266 266 266 267 269 270 269 268 268 268 268 269 270 271 271 273 272 273 273 270 273 276 276 274 273 275 273 271 271 270 280 279 280 278 278 277 280 282
265 266 264 266 267 268 265 265 264 265 265 265 268 269 270 272 272 273 272 269 269 273 272 272 273 275 275 275 270 269 269 279 275 269 270 268 270 274
261 264 265 265 264 266 264 263 264 262 264 265 265 266 267 270 271 272 270 269 269 267 270 272 276 277 274 274 270 267 269 268 274 280 280 277 271 270
259 262 260 259 261 263 266 263 263 262 263 264 264 265 265 267 270 270 269 269 269 268 269 272 273 274 275 274 270 272 267 265 274 271 269 279 280 280

GFSNE_sfc_thetae_009.txt.gz
Theta_e
285 285 285 286 285 286 287 287 285 279 279 283 284 288 290 292 291 290 293 299 300 299 300 301 302 303 302 302 301 301 304 306 309 310 310 309 308 309
286 285 284 284 283 284 283 284 285 283 280 284 284 287 289 288 290 288 290 297 297 297 296 297 298 301 302 301 301 300 301 303 305 307 307 305 305 305
282 282 281 282 281 280 281 281 281 281 280 282 287 289 286 286 287 289 288 288 293 296 294 294 296 297 298 300 300 299 298 300 301 302 303 305 305 305
281 280 280 282 279 279 279 279 279 281 280 279 283 282 283 285 285 286 287 288 287 294 294 293 293 294 296 296 296 296 297 296 296 298 299 300 300 302
280 280 279 279 277 277 278 278 279 281 281 279 280 281 282 282 282 285 284 284 286 291 292 291 291 293 296 296 295 296 295 295 294 294 295 295 297 298
281 280 279 278 277 277 278 280 282 281 280 279 279 279 279 280 281 280 280 281 280 285 288 289 289 290 292 294 295 295 295 295 295 294 293 293 293 294
280 280 279 280 283 281 279 278 279 280 279 279 278 278 278 276 276 278 278 277 279 281 281 283 285 286 287 290 292 295 295 294 295 295 294 293 292 293
277 278 279 280 280 281 281 282 281 279 279 278 278 277 278 277 276 276 276 275 274 279 279 279 283 282 283 285 291 292 293 293 294 294 294 294 293 292
278 278 278 279 279 279 280 281 281 282 282 279 278 277 277 277 277 276 275 275 275 278 279 277 279 280 282 284 288 291 291 291 291 291 291 291 291 291
277 277 277 277 279 279 279 279 279 279 280 280 279 279 278 279 279 279 277 277 278 279 279 274 276 276 280 282 286 289 291 290 290 290 290 290 290 290
277 277 277 277 279 281 279 278 278 279 281 281 281 282 282 283 283 280 277 278 276 278 278 277 275 273 273 275 280 287 289 289 290 290 290 290 290 289
275 276 278 278 280 280 278 277 275 277 278 277 277 278 279 279 281 280 278 277 277 274 277 277 277 275 271 273 273 275 275 285 288 289 290 291 290 285
275 275 276 279 279 280 279 278 277 279 278 277 277 276 277 277 278 278 278 277 275 275 278 278 276 275 273 274 273 274 275 275 276 281 286 289 290 288
274 275 276 278 278 278 278 279 278 277 275 275 275 275 275 276 278 278 279 279 279 278 279 280 276 277 274 271 273 275 273 274 273 278 277 284 287 289
274 277 277 277 277 276 277 277 276 275 274 273 274 275 277 279 280 280 281 281 281 281 282 281 281 279 277 276 273 272 273 275 271 274 273 274 277 275
272 271 273 275 273 273 273 274 275 274 274 274 274 276 278 278 279 280 279 279 279 279 282 283 282 282 280 281 280 278 275 279 273 273 275 281 281 283
266 264 268 270 270 271 270 271 272 273 272 273 273 274 276 277 278 280 280 280 276 276 277 277 281 282 282 282 280 281 280 279 276 275 277 275 275 278
266 261 259 262 267 270 268 267 268 269 270 272 272 272 273 275 277 278 278 277 277 276 277 279 281 280 281 280 284 280 280 279 279 280 279 278 275 276
262 261 258 258 264 269 269 268 266 266 269 269 270 270 271 273 274 275 275 274 275 275 274 273 277 280 278 276 277 283 280 281 280 279 279 279 280 276
264 262 260 260 264 268 268 267 266 264 262 265 268 268 268 270 272 273 273 270 272 274 274 274 273 274 271 268 272 272 280 278 279 279 278 276 277 281
264 264 260 261 263 264 262 263 261 261 261 260 262 266 267 268 270 271 271 270 270 273 272 271 271 274 273 271 269 266 267 278 275 269 270 269 269 277
261 264 264 262 260 260 258 259 263 262 263 263 262 262 263 266 269 269 268 264 268 267 269 271 274 275 273 272 268 262 269 270 275 278 279 276 270 268
261 263 260 257 256 257 261 258 260 260 263 263 263 263 262 264 267 267 267 267 268 268 268 271 272 272 273 273 269 268 269 267 275 272 269 277 280 280

GFSNE_sfc_thetae_015.txt.gz
Theta_e
294 293 293 292 293 291 290 288 285 280 282 285 285 289 290 290 292 294 295 294 293 297 297 298 298 299 300 303 304 303 302 305 309 312 316 317 318 316
292 292 292 291 290 289 289 288 286 283 280 284 284 286 287 287 290 291 293 293 292 293 295 295 295 296 297 299 301 303 302 303 307 309 315 315 315 314
292 290 289 289 288 288 287 286 284 283 280 282 284 285 286 287 288 290 293 294 294 293 293 293 294 294 294 296 298 300 302 302 305 308 308 310 311 311
289 288 287 287 286 286 285 284 283 283 281 279 282 284 285 287 288 289 291 291 293 292 291 292 292 292 292 294 296 297 298 299 302 304 306 307 308 310
287 286 286 285 285 285 284 283 282 282 282 280 280 282 284 286 287 288 289 291 290 289 290 290 290 291 291 292 294 296 296 297 296 297 298 300 303 305
286 286 285 285 283 283 282 282 281 280 280 279 279 280 282 284 285 285 286 288 287 288 288 288 288 289 289 291 292 294 296 296 296 295 294 293 295 298
285 284 284 283 282 282 281 280 280 279 279 279 279 279 280 280 281 283 284 286 287 288 287 288 289 291 293 292 292 293 294 295 296 295 294 293 293 295
281 282 281 280 281 280 280 280 280 279 279 279 280 279 279 280 282 282 282 281 281 288 286 286 288 287 290 292 288 291 293 294 295 295 294 294 293 293
281 280 279 280 280 280 280 281 281 281 281 281 279 279 279 281 281 281 281 281 281 285 284 282 286 285 288 288 287 289 291 293 293 293 293 293 292 291
280 280 279 279 280 279 281 280 280 280 281 281 282 282 282 282 282 282 282 281 283 284 285 280 285 285 287 288 287 287 289 290 292 292 292 292 291 291
280 280 280 279 279 281 280 279 278 279 281 281 282 282 282 282 282 281 280 279 279 280 284 282 283 284 286 287 289 286 287 290 290 290 291 291 290 290
280 279 278 279 279 279 279 278 276 278 278 279 280 281 281 282 281 282 281 279 280 279 283 281 281 283 282 288 289 289 288 285 287 290 290 291 290 292
278 278 279 278 278 278 277 278 277 278 278 278 278 280 280 280 281 282 282 281 280 280 284 283 283 283 284 284 287 289 289 288 290 289 288 289 290 291
277 278 278 277 277 276 276 276 276 277 277 277 277 278 279 279 281 282 282 282 283 282 284 284 282 281 280 281 281 287 289 289 289 289 290 288 287 289
279 277 276 276 275 275 275 275 274 276 276 275 276 277 278 280 281 282 283 283 283 283 283 283 283 282 282 280 280 283 284 287 289 289 289 289 289 291
277 277 275 275 274 274 275 275 275 274 274 274 275 277 279 280 281 283 282 283 281 282 283 284 284 283 282 282 281 281 283 283 287 288 289 289 289 289
275 276 275 274 274 274 274 274 274 273 273 274 275 276 277 278 280 282 282 283 281 282 283 284 285 285 284 284 282 282 282 283 285 285 284 286 288 289
276 275 274 273 273 273 273 273 273 271 272 273 274 275 275 277 278 280 281 281 281 281 282 283 284 283 283 284 285 284 284 283 284 284 284 283 285 288
276 276 274 274 273 273 273 273 272 272 271 272 273 273 274 276 277 278 278 279 279 280 281 282 282 283 281 280 282 283 283 284 284 283 284 283 283 285
277 276 275 275 274 273 273 272 272 272 271 271 272 272 273 274 275 276 277 276 278 278 279 281 281 280 280 280 282 283 281 284 284 283 282 284 285 282
278 277 277 276 275 274 274 272 271 271 270 270 271 271 272 273 274 274 275 274 274 276 276 278 280 279 281 282 281 281 283 279 281 282 283 282 281 282
279 278 277 277 276 275 274 273 272 272 271 271 270 271 271 272 272 273 274 274 275 275 275 278 280 281 281 280 280 279 281 282 280 279 280 280 283 280
280 279 279 277 276 275 274 274 272 272 271 270 271 271 271 271 272 273 273 274 274 274 274 275 277 279 280 279 278 280 278 279 282 282 282 278 280 280